Location: ??
(35.5052°N, 139.7262°E)
Time: 18:27:52
(UTC+00:00)

Chandra Rocket (1) - Pass Details

Date: 20 June 2021
Orbit: 357 x 10987 km, 28.4° (Epoch: 29 July)

Event Time Altitude Azimuth Distance (km) Brightness Sun altitude
Exits shadow 17:39:02 24° 220° (SW) 3,057 4.9 -17.8°
Maximum altitude 17:43:14 34° 179° (S) 1,791 4.0 -17.2°
Drops below altitude 10° 17:47:27 10° 113° (ESE) 2,104 5.0 -16.6°
Sets 17:49:08 0° 101° (E) 2,691 5.8 -16.4°
